CDT,Max TemperatureF,Mean TemperatureF,Min TemperatureF,Max Dew PointF,MeanDew PointF,Min DewpointF,Max Humidity, Mean Humidity, Min Humidity, Max Sea Level PressureIn, Mean Sea Level PressureIn, Min Sea Level PressureIn, Max VisibilityMiles, Mean VisibilityMiles, Min VisibilityMiles, Max Wind SpeedMPH, Mean Wind SpeedMPH, Max Gust SpeedMPH,PrecipitationIn, CloudCover, Events, WindDirDegrees
2012-10-1,75,60,44,51,43,33,86,54,29,30.10,30.03,29.93,10,10,10,26,13,34,0.00,2,,351
2012-10-2,77,56,35,36,33,31,85,48,19,30.08,29.98,29.85,10,10,10,13,7,18,0.00,0,,230
2012-10-3,87,67,46,52,45,36,71,47,26,30.03,29.81,29.69,10,10,10,32,10,43,0.02,1,Thunderstorm,214
2012-10-4,59,50,40,33,30,27,63,44,32,30.36,30.27,30.09,10,10,10,24,15,32,0.00,2,,4
2012-10-5,46,40,33,38,33,29,100,83,62,30.43,30.37,30.30,10,8,1,12,7,,0.14,5,Rain-Snow,60
2012-10-6,42,36,29,37,35,29,100,90,62,30.45,30.40,30.35,10,9,2,13,5,,0.20,7,Rain,12
2012-10-7,54,40,25,39,33,23,96,81,54,30.42,30.27,30.11,10,10,10,13,6,20,T,3,,238
2012-10-8,77,55,32,39,32,22,92,54,14,30.10,29.93,29.81,10,10,8,16,8,23,0.00,0,,229
2012-10-9,62,49,35,41,34,25,96,59,29,30.23,30.00,29.76,10,10,10,25,11,33,0.00,0,,356
2012-10-10,67,48,28,34,31,27,92,57,29,30.30,30.18,30.01,10,10,9,16,7,23,0.00,0,,222
2012-10-11,70,55,39,44,39,33,89,63,33,30.27,30.05,29.96,10,10,10,18,6,28,0.00,0,,91
2012-10-12,55,47,39,47,39,29,93,69,52,30.29,30.12,29.94,10,10,2,13,8,,0.28,6,Rain-Thunderstorm,100
2012-10-13,76,63,49,58,50,44,100,81,33,29.98,29.80,29.59,10,7,1,26,7,37,0.37,4,Rain-Thunderstorm,215
2012-10-14,76,62,47,45,39,37,69,45,25,30.09,29.99,29.77,10,10,10,20,11,29,0.00,0,,307
2012-10-15,84,64,44,47,42,36,82,49,19,30.05,29.89,29.72,10,10,10,13,6,,0.00,0,,244
2012-10-16,79,63,47,47,42,38,86,49,25,29.74,29.61,29.42,10,10,10,17,7,,0.00,0,,243
2012-10-17,67,56,45,47,30,17,66,37,18,29.87,29.67,29.40,10,10,10,31,15,41,T,2,Rain,315
2012-10-18,61,51,41,22,17,14,42,24,16,29.92,29.88,29.83,10,6,2,38,23,58,0.00,5,,309
2012-10-19,69,53,36,31,17,2,68,31,10,29.99,29.89,29.81,10,10,10,18,12,29,0.00,0,,304
2012-10-20,85,58,31,38,32,26,85,47,12,29.80,29.70,29.62,10,10,10,10,3,21,0.00,0,,226
2012-10-21,83,61,38,57,47,37,97,66,28,29.73,29.67,29.61,10,10,8,15,5,,0.00,0,,118
2012-10-22,62,54,46,49,46,43,97,74,63,29.89,29.80,29.72,10,8,5,18,11,24,0.00,6,,358
2012-10-23,70,57,44,54,49,45,100,91,51,29.79,29.72,29.67,10,5,0,8,5,,0.00,4,Fog,35
2012-10-24,52,48,43,52,49,44,100,99,93,29.83,29.75,29.68,7,3,0,21,9,26,0.02,7,Fog-Rain,23
2012-10-25,50,39,27,43,32,24,97,76,39,30.43,30.09,29.82,10,10,4,24,20,39,T,6,Rain,352
2012-10-26,43,32,20,25,23,18,93,72,47,30.62,30.51,30.42,10,10,8,12,7,18,0.00,4,,12
2012-10-27,50,34,18,26,22,16,92,68,39,30.44,30.33,30.20,10,10,9,14,3,22,0.00,1,,152
2012-10-28,58,40,21,31,25,18,89,60,32,30.28,30.19,30.11,10,10,10,16,5,25,0.00,4,,163
2012-10-29,72,53,34,35,30,26,70,44,26,30.13,30.06,29.96,10,10,10,10,7,16,0.00,2,,193
2012-10-30,75,56,37,40,36,32,76,49,27,30.04,29.97,29.91,10,10,10,16,7,,0.00,0,,325
2012-10-31,75,54,33,39,35,32,89,61,26,30.08,30.03,29.97,10,9,5,10,5,,0.00,0,,320